Overview Statistics Trail Chart Weather Telemetry Raw packets
 

This is the latest recevied weather packets stored in our database for station/object DL2AKT-20. If no packets are shown the sender has not sent any weather packets the latest 10 day(s).

<< 26 27 28 29 30 31 32 >>
Time Temp. Humidity Pressure Rain* Wind** Luminosity Snow
1777583071 15° C 32% 1031.8 hPa - - - -
1777582167 15° C 33% 1031.8 hPa - - - -
1777581267 15.56° C 32% 1031.9 hPa - - - -
1777580367 15.56° C 32% 1031.9 hPa - - - -
1777579467 15.56° C 32% 1031.8 hPa - - - -
1777578567 16.11° C 31% 1031.7 hPa - - - -
1777577666 16.67° C 30% 1031.7 hPa - - - -
1777576766 17.22° C 30% 1031.6 hPa - - - -
1777575866 16.67° C 30% 1031.6 hPa - - - -
1777574968 17.78° C 29% 1031.4 hPa - - - -
1777574068 17.78° C 29% 1031.2 hPa - - - -
1777573168 17.22° C 29% 1031.1 hPa - - - -
1777572268 17.22° C 28% 1031.1 hPa - - - -
1777571368 17.78° C 27% 1031.2 hPa - - - -
1777570468 18.33° C 27% 1031.1 hPa - - - -
1777569568 20° C 26% 1031.1 hPa - - - -
1777568668 17.78° C 28% 1031.1 hPa - - - -
1777567768 18.89° C 26% 1031.2 hPa - - - -
1777566868 18.33° C 26% 1031.2 hPa - - - -
1777565967 18.89° C 25% 1031.3 hPa - - - -
1777565067 19.44° C 25% 1031.4 hPa - - - -
1777564167 19.44° C 25% 1031.4 hPa - - - -
1777563267 19.44° C 25% 1031.2 hPa - - - -
1777562367 19.44° C 25% 1031.2 hPa - - - -
1777561467 18.89° C 24% 1031.4 hPa - - - -

* Rain since midnight (hover to see other rain measurements)
** Current wind speed in m/s (hover to see current wind gust speed)